Regional Weather Roundup
Issued by NWS

Home | Current Version | Previous Version | Graphics & Text | Print | Product List | Glossary On
Versions: 1 2 3 4 5 6 7 8 9 10 11 12 13 14 15 16 17 18 19 20 21 22 23 24 25 26 27 28 29 30 31 32 33 34 35 36 37 38 39 40 41 42 43 44 45 46 47 48 49 50
000
ASUS43 KTOP 221208
RWRKS

WEATHER ROUNDUP FOR KANSAS
NATIONAL WEATHER SERVICE GOODLAND KS
700 AM CDT SAT JUL 22 2017

NOTE:  "FAIR" INDICATES FEW OR NO CLOUDS BELOW 12,000 FEET WITH NO
SIGNIFICANT WEATHER AND/OR OBSTRUCTIONS TO VISIBILITY.

KSZ001>006-013>018-027>032-041>047-221300-
NORTHWEST KANSAS

CITY           SKY/WX    TMP DP  RH WIND       PRES   REMARKS
GOODLAND       CLOUDY    68  56  65 W6        30.00R
6HR MIN TEMP:  68; 6HR MAX TEMP:  74;

HAYS           CLEAR     69  57  65 W9        29.88R
HILL CITY      CLEAR     70  58  65 W5        29.89S
6HR MIN TEMP:  70; 6HR MAX TEMP:  85;

RUSSELL        CLEAR     73  58  59 SW9       29.84S
6HR MIN TEMP:  73; 6HR MAX TEMP:  86;

$$

KSZ061>065-074>080-084>089-221300-
SOUTHWEST KANSAS

CITY           SKY/WX    TMP DP  RH WIND       PRES   REMARKS
DODGE CITY     CLEAR     66  58  75 NW5       29.94S
6HR MIN TEMP:  66; 6HR MAX TEMP:  81;

ELKHART          N/A     67  49  52 NW3         N/A
GARDEN CITY    CLEAR     64  58  80 W8        29.95F
6HR MIN TEMP:  63; 6HR MAX TEMP:  79;

LIBERAL        CLEAR     66  58  75 W6        29.98S
PRATT          CLEAR     71  61  69 S8        29.90F
6HR MIN TEMP:  70; 6HR MAX TEMP:  80;

$$

KSZ066>073-081>083-090>101-221300-
SOUTHEAST KANSAS

CITY           SKY/WX    TMP DP  RH WIND       PRES   REMARKS
CHANUTE        CLEAR     79  71  76 MISG      29.89S
6HR MIN TEMP:  79; 6HR MAX TEMP:  84;

COFFEYVILLE    CLEAR     78  71  79 S9        29.90R
6HR MIN TEMP:  77; 6HR MAX TEMP:  84;

HUTCHINSON     CLEAR     79  66  64 S8        29.86F
6HR MIN TEMP:  78; 6HR MAX TEMP:  87;

MEDICINE LODGE   N/A     76  65  68 S7        29.89S
NEWTON         CLEAR     79  68  69 S10       29.89R
PARSONS        CLEAR     78  70  76 S7        29.91S
6HR MIN TEMP:  77; 6HR MAX TEMP:  82;

WICHITA INTL   PTCLDY    79  69  71 SW8       29.88R
6HR MIN TEMP:  79; 6HR MAX TEMP:  86;

WICHITA JABRA  CLEAR     80  68  66 SW10      29.89R
6HR MIN TEMP:  79; 6HR MAX TEMP:  86;

WICHITA MCCONL PTCLDY    78  68  70 SW9       29.89R
WINFIELD       PTCLDY    78  68  71 S6        29.91R
6HR MIN TEMP:  77; 6HR MAX TEMP:  86;

$$

KSZ007>012-019>026-033>040-048>060-102>105-221300-
NORTHEAST KANSAS

CITY           SKY/WX    TMP DP  RH WIND       PRES   REMARKS
CONCORDIA      CLEAR     78  63  59 W8        29.82R
6HR MIN TEMP:  77; 6HR MAX TEMP:  85;

EMPORIA        PTCLDY    80  69  69 S13G21    29.86R
6HR MIN TEMP:  80; 6HR MAX TEMP:  83;

LAWRENCE       CLEAR     83  72  69 S8        29.83R
6HR MIN TEMP:  82; 6HR MAX TEMP:  86;

MANHATTAN      CLEAR     81  67  62 SW6       29.81S
6HR MIN TEMP:  79; 6HR MAX TEMP:  89;

MARYSVILLE     CLOUDY    77  66  69 SW3       29.82R
OLATHE IND     CLEAR     81  71  71 S15       29.85S
6HR MIN TEMP:  80; 6HR MAX TEMP:  84;

OLATHE EXE     CLEAR     80  72  76 SW12      29.85S
6HR MIN TEMP:  80; 6HR MAX TEMP:  83;

SALINA         CLEAR     83  64  52 SW13      29.82S
6HR MIN TEMP:  83; 6HR MAX TEMP:  90;

TOPEKA BILLARD CLEAR     82  73  74 S6        29.82R
6HR MIN TEMP:  82; 6HR MAX TEMP:  87;

TOPEKA FORBES  CLEAR     81  72  74 S10       29.83R
6HR MIN TEMP:  81; 6HR MAX TEMP:  87;

$$



USA.gov is the U.S. government's official web portal to all federal, state and local government web resources and services.